"Pseudo-MPEC" for P12oAYR

Created 2026 Jul 28 21:35:06 UT using Find_Orb

Click here for an explanation of pseudo-MPECs

 
 Astrometry: 
     P12oAYR*0C2026 07 24.57453423 14 51.474+07 28 52.83   ~7OFo 22.23wXNEOCPF51
     P12oAYR 0C2026 07 24.58631723 14 52.055+07 29 03.30   ~7OFo 22.02wXNEOCPF51
     P12oAYR 0C2026 07 24.59838023 14 52.633+07 29 13.92   ~7OFo 22.01wXNEOCPF51
     P12oAYR 0C2026 07 26.51234423 16 33.342+07 57 05.90   ~7QDZ 22.13wXNEOCPF52
     P12oAYR 0C2026 07 26.52197723 16 33.768+07 57 14.01   ~7QDZ 22.40wXNEOCPF52
     P12oAYR 0C2026 07 26.53180623 16 34.219+07 57 22.50   ~7QDZ 22.30wXNEOCPF52
     P12oAYR 0C2026 07 26.57190623 16 36.011+07 57 57.01   ~7QMo 21.77GVNEOCPF51
     P12oAYR 0C2026 07 27.49732923 17 22.194+08 11 05.78   ~7RL5 21.83GVNEOCPF52

Station data:
(F51) Pan-STARRS 1, Haleakala  (N20.707234 W156.255910)  US/Hawaii.
   Observers J. Herman, T. Lowe, P. Minguez, A. Schultz, I. Smith. Measurers
   K. Chambers, T. de Boer, J. Fairlamb, H. Gao, M. Huber, C.-C. Lin, E.
   Magnier, Y. Ramanjooloo, R. Wainscoat, R. Weryk. 1.8-m Ritchey-Chrétien +
   CCD.
(F52) Pan-STARRS 2, Haleakala  (N20.707382 W156.255910)  US/Hawaii.
   Observers J. Herman, T. Lowe, P. Minguez, A. Schultz, I. Smith. Measurers
   K. Chambers, T. de Boer, J. Fairlamb, H. Gao, M. Huber, C.-C. Lin, E.
   Magnier, Y. Ramanjooloo, R. Wainscoat, R. Weryk. 1.8-m Ritchey-Chrétien +
   CCD.

Orbital elements:  P12oAYR
   Perihelion 2026 Aug 10.149175 +/- 2.88 TT =  3:34:48.7 (JD 2461262.649175)
Epoch 2026 Jul 27.0 TT = JDT 2461248.5   Earth MOID: 0.4841      AutoNEOCP
M 355.600531389 +/- 1.1             (J2000 ecliptic)
n   0.310934636 +/- 0.0208          Peri.   77.778250 +/- 2.7
a   2.157860246 +/- 0.0964          Node   252.964782 +/- 1.2
e   0.31253629 +/- 0.0241           Incl.    5.183884 +/- 0.11
P   3.16982                H 20.85  G  0.15   U 10.1
q 1.483450598 +/- 0.0142    Q 2.832269893 +/- 0.179
From 8 observations 2026 July 24-27; mean residual 0".06
Residuals in arcseconds: 
260724 F51  .00   .01-    260726 F52  .05+  .15+    260726 F51  .04-  .02-    
260724 F51  .09+  .03+    260726 F52  .08-  .05-    260727 F52  .02+  .01-    
260724 F51  .07-  .03-    260726 F52  .05+  .04-    

Ephemerides (geocentric):
Date (UTC) HH   RA             Dec           delta  r     elong  mag " sig PA
---- --------  ------------   ------------  ------ ------ -----  --- --------
2026 07 28 22  23 18 28.732   +08 30 53.85  .61086 1.4866 130.5 22.0 .929 117
2026 07 28 23  23 18 30.633   +08 31 28.16  .61066 1.4866 130.5 22.0 .954 117
2026 07 29 00  23 18 32.531   +08 32 02.45  .61047 1.4865 130.6 22.0 .980 117
2026 07 29 01  23 18 34.425   +08 32 36.70  .61028 1.4865 130.6 22.0 1.01 117
2026 07 29 02  23 18 36.316   +08 33 10.94  .61009 1.4865 130.6 22.0 1.03 117
2026 07 29 03  23 18 38.203   +08 33 45.14  .60990 1.4865 130.7 22.0 1.06 117
2026 07 29 04  23 18 40.087   +08 34 19.31  .60971 1.4865 130.7 22.0 1.08 117
2026 07 29 05  23 18 41.967   +08 34 53.46  .60952 1.4864 130.7 22.0 1.11 117
2026 07 29 06  23 18 43.843   +08 35 27.58  .60933 1.4864 130.7 22.0 1.14 117
2026 07 29 07  23 18 45.716   +08 36 01.67  .60914 1.4864 130.8 22.0 1.17 117
2026 07 29 08  23 18 47.585   +08 36 35.74  .60895 1.4864 130.8 22.0 1.19 117
2026 07 29 09  23 18 49.451   +08 37 09.78  .60876 1.4864 130.8 22.0 1.22 116
2026 07 29 10  23 18 51.313   +08 37 43.79  .60857 1.4863 130.8 22.0 1.25 116
2026 07 29 11  23 18 53.172   +08 38 17.77  .60838 1.4863 130.9 22.0 1.28 116
2026 07 29 12  23 18 55.027   +08 38 51.72  .60819 1.4863 130.9 22.0 1.31 116
2026 07 29 13  23 18 56.879   +08 39 25.65  .60800 1.4863 130.9 22.0 1.34 116
2026 07 29 14  23 18 58.727   +08 39 59.54  .60781 1.4863 130.9 22.0 1.37 116
2026 07 29 15  23 19 00.571   +08 40 33.41  .60762 1.4862 131.0 22.0 1.40 116
2026 07 29 16  23 19 02.412   +08 41 07.25  .60744 1.4862 131.0 22.0 1.43 116
2026 07 29 17  23 19 04.249   +08 41 41.07  .60725 1.4862 131.0 22.0 1.46 116
2026 07 29 18  23 19 06.083   +08 42 14.85  .60706 1.4862 131.1 22.0 1.49 116
2026 07 29 19  23 19 07.913   +08 42 48.61  .60687 1.4862 131.1 22.0 1.53 116
2026 07 29 20  23 19 09.739   +08 43 22.34  .60668 1.4861 131.1 22.0 1.56 116
2026 07 29 21  23 19 11.562   +08 43 56.04  .60649 1.4861 131.1 22.0 1.59 116
2026 07 29 22  23 19 13.382   +08 44 29.71  .60631 1.4861 131.2 22.0 1.62 116
2026 07 29 23  23 19 15.197   +08 45 03.35  .60612 1.4861 131.2 22.0 1.66 116
2026 07 30 00  23 19 17.009   +08 45 36.97  .60593 1.4861 131.2 22.0 1.69 116
2026 07 30 01  23 19 18.818   +08 46 10.55  .60574 1.4860 131.2 22.0 1.73 116
2026 07 30 02  23 19 20.623   +08 46 44.11  .60556 1.4860 131.3 21.9 1.76 116
2026 07 30 03  23 19 22.424   +08 47 17.64  .60537 1.4860 131.3 21.9 1.79 116
2026 07 30 04  23 19 24.222   +08 47 51.14  .60518 1.4860 131.3 21.9 1.83 116
2026 07 30 05  23 19 26.016   +08 48 24.62  .60500 1.4860 131.3 21.9 1.87 116
2026 07 30 06  23 19 27.806   +08 48 58.06  .60481 1.4859 131.4 21.9 1.90 116
2026 07 30 07  23 19 29.593   +08 49 31.47  .60462 1.4859 131.4 21.9 1.94 116
2026 07 30 08  23 19 31.377   +08 50 04.86  .60444 1.4859 131.4 21.9 1.97 115
2026 07 30 09  23 19 33.156   +08 50 38.22  .60425 1.4859 131.5 21.9 2.01 115
2026 07 30 10  23 19 34.932   +08 51 11.55  .60407 1.4859 131.5 21.9 2.05 115
2026 07 30 11  23 19 36.705   +08 51 44.84  .60388 1.4858 131.5 21.9 2.09 115
2026 07 30 12  23 19 38.474   +08 52 18.12  .60369 1.4858 131.5 21.9 2.12 115
2026 07 30 13  23 19 40.239   +08 52 51.36  .60351 1.4858 131.6 21.9 2.16 115
2026 07 30 14  23 19 42.001   +08 53 24.57  .60332 1.4858 131.6 21.9 2.20 115
2026 07 30 15  23 19 43.759   +08 53 57.75  .60314 1.4858 131.6 21.9 2.24 115
2026 07 30 16  23 19 45.513   +08 54 30.91  .60295 1.4858 131.6 21.9 2.28 115
2026 07 30 17  23 19 47.264   +08 55 04.03  .60277 1.4857 131.7 21.9 2.32 115
2026 07 30 18  23 19 49.011   +08 55 37.13  .60258 1.4857 131.7 21.9 2.36 115
2026 07 30 19  23 19 50.754   +08 56 10.19  .60240 1.4857 131.7 21.9 2.40 115
2026 07 30 20  23 19 52.494   +08 56 43.23  .60221 1.4857 131.8 21.9 2.44 115
2026 07 30 21  23 19 54.230   +08 57 16.24  .60203 1.4857 131.8 21.9 2.48 115